Location: Pedholt
(56.0260°N, 10.2097°E)
Time: 18:47:15
(UTC+00:00)

Transit 2A Rocket - Pass Details

Date: 01 August 2021
Orbit: 586 x 917 km, 66.7° (Epoch: 26 September)

Event Time Altitude Azimuth Distance (km) Brightness Sun altitude
Rises 15:34:11 0° 252° (WSW) 2,930 9.2 30.2°
Reaches altitude 10° 15:36:30 10° 260° (W) 2,065 8.9 29.8°
Maximum altitude 15:40:55 41° 331° (NNW) 1,011 6.2 29.2°
Drops below altitude 10° 15:45:47 10° 41° (NE) 2,268 7.1 28.6°
Sets 15:48:26 0° 49° (NE) 3,255 7.8 28.2°
